Home > Weather > Sterling Heights > Past weeks

Flag for USA Weather for the Past 2 Weeks in Sterling Heights, Michigan, USA

Now
69 °F

Passing clouds.


Feels Like: 69 °F
Forecast: 44 / 71 °F
Wind: 8 mph from East

Location: Selfridge Air National Guard Base

Current Time: May 6, 2016 at 3:41:14 PM

Latest Report: May 6, 2016 at 2:58 PM


Visibility: 10 mi

Pressure: 29.90 "Hg

Humidity: 35%

Dew Point: 40 °F

Location of Sterling HeightsLocation

Historic Weather in Sterling Heights — Graph

°F

Sterling Heights Temperature Yesterday

Maximum temperature yesterday: 65 °F (at 2:58 PM)
Minimum temperature yesterday: 42 °F (at 5:58 AM)
Average temperature yesterday: 54 °F

High & Low Weather Summary for the Past Weeks

 TemperatureHumidityPressure
High67 °F (May 6, 1:58 PM)100% (Apr 21, 1:58 PM)30.23 "Hg (Apr 21, 1:58 PM)
Low32 °F (Apr 24, 6:58 AM)24% (Apr 23, 5:58 PM)29.59 "Hg (May 4, 2:58 PM)
Average49 °F76%29.95 "Hg
* Reported Apr 21 1:58 PM — May 6 1:58 PM, Sterling Heights, Weather by CustomWeather, © 2016

Note: Actual official high and low records may vary slightly from our data, if they occured in-between our weather recording intervals... More about our weather records

Advertising

Sterling Heights Weather History for the Previous 24 Hours

Scroll right to see more
 ConditionsComfort  
Time TempWeatherWind HumidityBarometerVisibility
1:58 PM
Fri, May 6
67 °FPassing clouds.8 mph37%29.92 "Hg10 mi
12:58 PM66 °FSunny.7 mph47%29.95 "Hg10 mi
11:58 AM65 °FSunny.9 mph48%29.96 "Hg10 mi
10:58 AM62 °FSunny.10 mph52%29.96 "Hg10 mi
9:58 AM60 °FSunny.10 mph56%29.96 "Hg10 mi
8:58 AM57 °FSunny.10 mph58%29.95 "Hg10 mi
7:58 AM50 °FSunny.6 mph71%29.94 "Hg10 mi
6:58 AM44 °FClear.7 mph79%29.92 "Hg10 mi
5:58 AM45 °FClear.5 mph73%29.91 "Hg10 mi
4:58 AM45 °FClear.6 mph71%29.91 "Hg10 mi
3:58 AM46 °FClear.5 mph72%29.91 "Hg10 mi
2:58 AM44 °FClear.2 mph72%29.91 "Hg10 mi
1:58 AM47 °FClear.5 mph64%29.90 "Hg10 mi
12:58 AM47 °FClear.3 mph66%29.90 "Hg10 mi
11:58 PM
Thu, May 5
50 °FClear.5 mph59%29.90 "Hg10 mi
10:58 PM49 °FClear.7 mph59%29.90 "Hg10 mi
9:58 PM52 °FClear.9 mph53%29.89 "Hg10 mi
8:58 PM54 °FSunny.10 mph51%29.88 "Hg10 mi
7:58 PM60 °FSunny.12 mph42%29.87 "Hg10 mi
6:58 PM62 °FSunny.18 mph38%29.86 "Hg10 mi
5:58 PM64 °FSunny.21 mph39%29.86 "Hg10 mi
4:58 PM64 °FSunny.22 mph38%29.85 "Hg10 mi
3:58 PM65 °FScattered clouds.21 mph38%29.85 "Hg10 mi
Weather by CustomWeather, © 2016

See weather overviewHow to use our weather pages